GW3465 Weather Reports


time (UTC)temp
C
wind
direction
speed
KPH
gust
KPH
rain 1hr
cm
rain 24hr
cm
rain mn
cm
humidity
%
barometer
mb
20260507201033 17 300 17.7 22.5 0.00 0.00 0.00 47 1015.3
20260507200529 18 254 8.0 16.1 0.00 0.00 0.00 48 1015.3
20260507200025 17 315 9.7 25.7 0.00 0.00 0.00 49 1015.5
20260507195522 17 238 11.3 20.9 0.00 0.00 0.00 49 1015.6
20260507195020 18 226 14.5 27.4 0.00 0.00 0.00 48 1015.6
20260507194516 17 265 14.5 22.5 0.00 0.00 0.00 48 1015.8
20260507194012 17 239 11.3 22.5 0.00 0.00 0.00 49 1015.9
20260507193509 17 298 9.7 16.1 0.00 0.00 0.00 48 1015.9
20260507193006 17 242 9.7 24.1 0.00 0.00 0.00 48 1015.9
20260507192502 17 332 8.0 17.7 0.00 0.00 0.00 51 1016.1
20260507191959 17 294 19.3 24.1 0.00 0.00 0.00 48 1016.0
20260507191454 17 270 17.7 24.1 0.00 0.00 0.00 50 1016.2
20260507190952 17 241 12.9 16.1 0.00 0.00 0.00 49 1016.2
20260507190449 17 260 19.3 24.1 0.00 0.00 0.00 47 1016.2
20260507185948 17 313 9.7 22.5 0.00 0.00 0.00 49 1016.0
20260507185445 17 299 11.3 22.5 0.00 0.00 0.00 50 1016.3
20260507184942 17 304 14.5 17.7 0.00 0.00 0.00 48 1016.3
20260507184440 17 246 16.1 29.0 0.00 0.00 0.00 48 1016.4
20260507183938 17 251 9.7 24.1 0.00 0.00 0.00 47 1016.4
20260507183434 18 296 20.9 30.6 0.00 0.00 0.00 46 1016.5
20260507182931 17 283 9.7 17.7 0.00 0.00 0.00 49 1016.5
20260507182427 17 267 6.4 12.9 0.00 0.00 0.00 50 1016.6
20260507181923 16 205 9.7 25.7 0.00 0.00 0.00 48 1016.5
20260507181419 16 325 11.3 14.5 0.00 0.00 0.00 49 1016.3
20260507180916 16 267 6.4 17.7 0.00 0.00 0.00 50 1016.5
20260507180413 16 309 22.5 25.7 0.00 0.00 0.00 47 1016.6
20260507175909 17 268 17.7 24.1 0.00 0.00 0.00 47 1016.9
20260507175406 17 252 11.3 20.9 0.00 0.00 0.00 47 1016.9
20260507174903 16 285 6.4 17.7 0.00 0.00 0.00 49 1016.9
20260507174401 16 304 14.5 20.9 0.00 0.00 0.00 47 1017.1
20260507173858 16 337 8.0 12.9 0.00 0.00 0.00 49 1017.2
20260507173355 17 273 11.3 14.5 0.00 0.00 0.00 47 1017.2
20260507172851 17 295 22.5 25.7 0.00 0.00 0.00 47 1017.3
20260507172348 17 251 11.3 20.9 0.00 0.00 0.00 48 1017.3
20260507171844 16 285 11.3 20.9 0.00 0.00 0.00 48 1017.5
20260507171341 16 252 12.9 24.1 0.00 0.00 0.00 49 1017.5
20260507170838 16 264 8.0 16.1 0.00 0.00 0.00 50 1017.6
20260507170334 16 247 12.9 16.1 0.00 0.00 0.00 48 1017.5
20260507165830 16 253 8.0 12.9 0.00 0.00 0.00 46 1017.5
20260507165326 16 256 14.5 24.1 0.00 0.00 0.00 46 1017.9
20260507164822 16 342 12.9 20.9 0.00 0.00 0.00 46 1018.0
20260507164320 16 269 12.9 27.4 0.00 0.00 0.00 47 1018.2
20260507163817 16 259 9.7 22.5 0.00 0.00 0.00 48 1018.0
20260507163315 16 285 16.1 17.7 0.00 0.00 0.00 49 1018.0
20260507162810 16 227 8.0 12.9 0.00 0.00 0.00 47 1018.1
20260507162307 15 301 8.0 17.7 0.00 0.00 0.00 50 1017.9
20260507161804 15 297 8.0 16.1 0.00 0.00 0.00 49 1018.1
20260507161300 15 262 17.7 24.1 0.00 0.00 0.00 49 1018.2
20260507160756 15 290 11.3 20.9 0.00 0.00 0.00 49 1018.3
20260507160252 15 272 8.0 25.7 0.00 0.00 0.00 49 1018.1
20260507155748 15 347 12.9 17.7 0.00 0.00 0.00 49 1018.0
20260507155245 15 291 9.7 20.9 0.00 0.00 0.00 48 1018.0
20260507154741 15 180 9.7 16.1 0.00 0.00 0.00 52 1018.1
20260507154239 15 324 9.7 11.3 0.00 0.00 0.00 48 1018.3
20260507153735 15 240 12.9 16.1 0.00 0.00 0.00 49 1018.1
20260507153232 16 253 11.3 20.9 0.00 0.00 0.00 47 1018.1
20260507152728 15 205 1.6 4.8 0.00 0.00 0.00 49 1018.3
20260507152225 15 199 1.6 11.3 0.00 0.00 0.00 51 1018.4
20260507151721 14 275 16.1 22.5 0.00 0.00 0.00 49 1018.5
20260507151218 15 261 8.0 12.9 0.00 0.00 0.00 50 1018.4
20260507150715 14 263 11.3 17.7 0.00 0.00 0.00 50 1018.6
20260507150211 14 275 11.3 22.5 0.00 0.00 0.00 52 1018.6
20260507145707 14 231 4.8 16.1 0.00 0.00 0.00 52 1018.4
20260507145204 14 286 6.4 14.5 0.00 0.00 0.00 53 1018.7
20260507144700 13 274 12.9 17.7 0.00 0.00 0.00 54 1018.6
20260507144159 13 342 6.4 17.7 0.00 0.00 0.00 56 1018.6
20260507143655 13 288 4.8 12.9 0.00 0.00 0.00 59 1018.4
20260507143152 13 257 9.7 11.3 0.00 0.00 0.00 61 1018.4
20260507142648 13 195 0.0 6.4 0.00 0.00 0.00 61 1018.8
20260507142144 13 203 1.6 9.7 0.00 0.00 0.00 62 1018.7
20260507141641 12 287 3.2 6.4 0.00 0.00 0.00 65 1018.6
20260507141138 12 216 3.2 11.3 0.00 0.00 0.00 64 1018.8
20260507140634 12 307 6.4 9.7 0.00 0.00 0.00 66 1018.8
20260507140132 11 319 4.8 11.3 0.00 0.00 0.00 67 1018.9
20260507135629 11 256 6.4 9.7 0.00 0.00 0.00 68 1018.9
20260507135126 11 252 4.8 9.7 0.00 0.00 0.00 69 1019.0
20260507134622 11 305 3.2 6.4 0.00 0.00 0.00 71 1018.9
20260507134119 11 260 4.8 9.7 0.00 0.00 0.00 71 1018.8
20260507133615 10 264 4.8 4.8 0.00 0.00 0.00 73 1018.9
20260507133112 10 262 4.8 4.8 0.00 0.00 0.00 73 1019.0
20260507132609 10 257 3.2 6.4 0.00 0.00 0.00 72 1018.9
20260507132105 10 215 1.6 3.2 0.00 0.00 0.00 74 1019.1
20260507131602 10 216 3.2 3.2 0.00 0.00 0.00 74 1018.8
20260507131100 9 204 1.6 3.2 0.00 0.00 0.00 74 1019.0
20260507130556 10 217 1.6 3.2 0.00 0.00 0.00 74 1019.0
20260507130054 9 184 0.0 1.6 0.00 0.00 0.00 76 1019.0
20260507125553 9 174 1.6 1.6 0.00 0.00 0.00 75 1019.0
20260507125050 9 169 1.6 1.6 0.00 0.00 0.00 76 1019.0
20260507124546 8 175 1.6 1.6 0.00 0.00 0.00 78 1019.0
20260507124044 8 174 0.0 3.2 0.00 0.00 0.00 79 1019.0
20260507123542 8 174 0.0 1.6 0.00 0.00 0.00 79 1018.9
20260507123038 7 240 1.6 4.8 0.00 0.00 0.00 82 1018.8
20260507122534 7 198 1.6 3.2 0.00 0.00 0.00 83 1018.9
20260507122030 7 205 0.0 4.8 0.00 0.00 0.00 83 1018.7
20260507121526 6 195 0.0 1.6 0.00 0.00 0.00 84 1018.7
20260507121021 6 204 1.6 1.6 0.00 0.00 0.00 84 1018.7
20260507120518 6 202 1.6 1.6 0.00 0.00 0.00 83 1018.4
20260507120015 6 210 1.6 1.6 0.00 0.00 0.00 83 1018.4
20260507115511 6 199 1.6 1.6 0.00 0.00 0.00 82 1018.6
20260507115007 6 209 1.6 3.2 0.00 0.00 0.00 82 1018.6
20260507114503 6 252 3.2 3.2 0.00 0.00 0.00 82 1018.4
20260507114001 6 246 1.6 3.2 0.00 0.00 0.00 82 1018.4
20260507113458 6 236 1.6 4.8 0.00 0.00 0.00 81 1018.4
20260507112955 6 258 3.2 3.2 0.00 0.00 0.00 81 1018.4
20260507112452 5 275 3.2 3.2 0.00 0.00 0.00 83 1018.4
20260507111949 5 272 3.2 4.8 0.00 0.00 0.00 84 1018.3
20260507111446 5 249 3.2 3.2 0.00 0.00 0.00 84 1018.4
20260507110942 5 259 1.6 3.2 0.00 0.00 0.00 84 1018.3
20260507110439 5 267 3.2 3.2 0.00 0.00 0.00 84 1018.3
20260507105935 5 285 1.6 3.2 0.00 0.00 0.00 84 1018.2
20260507105432 5 276 1.6 3.2 0.00 0.00 0.00 83 1018.5
20260507104929 5 282 1.6 3.2 0.00 0.00 0.00 83 1018.5
20260507104426 5 287 3.2 3.2 0.00 0.00 0.00 84 1018.3
20260507103926 5 268 1.6 3.2 0.00 0.00 0.00 82 1018.2
20260507103424 5 273 3.2 4.8 0.00 0.00 0.00 82 1018.3
20260507102919 5 278 3.2 4.8 0.00 0.00 0.00 82 1018.4
20260507102416 5 286 3.2 4.8 0.00 0.00 0.00 82 1018.5
20260507101913 6 261 1.6 3.2 0.00 0.00 0.00 81 1018.5
20260507101408 6 265 3.2 4.8 0.00 0.00 0.00 80 1018.7
20260507100905 6 287 3.2 6.4 0.00 0.00 0.00 79 1018.3
20260507100402 6 284 3.2 6.4 0.00 0.00 0.00 79 1018.4
20260507095901 6 295 4.8 9.7 0.00 0.00 0.00 78 1018.2
20260507095357 6 294 3.2 4.8 0.00 0.00 0.00 81 1018.3
20260507094854 6 288 3.2 4.8 0.00 0.00 0.00 81 1018.3
20260507094350 6 285 3.2 4.8 0.00 0.00 0.00 80 1018.4
20260507093848 6 283 3.2 4.8 0.00 0.00 0.00 80 1018.3
20260507093346 6 269 1.6 4.8 0.00 0.00 0.00 78 1018.4
20260507092844 6 275 4.8 4.8 0.00 0.00 0.00 79 1018.3
20260507092340 6 286 3.2 3.2 0.00 0.00 0.00 79 1018.1
20260507091836 6 291 3.2 4.8 0.00 0.00 0.00 81 1018.2
20260507091333 6 275 3.2 4.8 0.00 0.00 0.00 81 1018.4
20260507090828 6 282 3.2 3.2 0.00 0.00 0.00 79 1018.2
20260507090325 6 252 0.0 3.2 0.00 0.00 0.00 79 1018.1
20260507085822 6 253 1.6 3.2 0.00 0.00 0.00 77 1018.2
20260507085319 6 236 1.6 1.6 0.00 0.00 0.00 77 1018.2
20260507084816 6 235 0.0 1.6 0.00 0.00 0.00 77 1018.0
20260507084313 6 236 1.6 1.6 0.00 0.00 0.00 75 1018.2
20260507083810 6 252 3.2 3.2 0.00 0.00 0.00 74 1018.0
20260507083306 6 242 1.6 1.6 0.00 0.00 0.00 74 1018.1
20260507082802 5 197 0.0 0.0 0.00 0.00 0.00 79 1018.1
20260507082258 5 197 0.0 0.0 0.00 0.00 0.00 82 1018.2
20260507081755 5 198 0.0 0.0 0.00 0.00 0.00 79 1018.0
20260507081251 6 199 0.0 0.0 0.00 0.00 0.00 78 1018.1
20260507080748 6 200 0.0 1.6 0.00 0.00 0.00 78 1018.3
20260507080244 6 201 1.6 1.6 0.00 0.00 0.00 76 1018.2
20260507075740 6 201 0.0 0.0 0.00 0.00 0.00 76 1018.4
20260507075236 6 201 0.0 0.0 0.00 0.00 0.00 75 1018.5
20260507074732 6 202 0.0 0.0 0.00 0.00 0.00 75 1018.2
20260507074231 6 203 0.0 1.6 0.00 0.00 0.00 76 1018.3
20260507073727 6 204 0.0 0.0 0.00 0.00 0.00 79 1018.2
20260507073224 6 205 0.0 1.6 0.00 0.00 0.00 79 1018.3
20260507072722 6 205 1.6 1.6 0.00 0.00 0.00 81 1018.2
20260507072219 6 220 1.6 1.6 0.00 0.00 0.00 80 1018.5
20260507071717 6 286 1.6 1.6 0.00 0.00 0.00 80 1018.6
20260507071212 6 287 1.6 1.6 0.00 0.00 0.00 82 1018.6
20260507070710 6 288 1.6 1.6 0.00 0.00 0.00 82 1018.7
20260507070207 6 288 0.0 3.2 0.00 0.00 0.00 83 1018.7
20260507065703 6 278 3.2 3.2 0.00 0.00 0.00 78 1019.1
20260507065200 7 276 3.2 4.8 0.00 0.00 0.00 75 1019.0
20260507064657 7 280 3.2 6.4 0.00 0.00 0.00 75 1019.0
20260507064155 6 254 3.2 3.2 0.00 0.00 0.00 80 1018.9
20260507063653 6 247 1.6 1.6 0.00 0.00 0.00 82 1018.9
20260507063150 6 248 1.6 1.6 0.00 0.00 0.00 87 1019.0
20260507062646 6 248 0.0 1.6 0.00 0.00 0.00 86 1018.9
20260507062144 7 248 1.6 3.2 0.00 0.00 0.00 87 1019.0
20260507061642 6 229 1.6 3.2 0.00 0.00 0.00 88 1019.0
20260507061140 6 228 1.6 3.2 0.00 0.00 0.00 86 1019.0
20260507060638 7 218 0.0 1.6 0.00 0.00 0.00 87 1019.0
20260507060134 7 219 1.6 1.6 0.00 0.00 0.00 88 1019.0
20260507055630 7 219 1.6 1.6 0.00 0.00 0.00 84 1018.8
20260507055126 7 212 1.6 1.6 0.00 0.00 0.00 77 1018.9
20260507054622 7 211 0.0 1.6 0.00 0.00 0.00 79 1019.0
20260507054119 7 211 0.0 1.6 0.00 0.00 0.00 83 1018.9
20260507053617 7 208 0.0 1.6 0.00 0.00 0.00 81 1019.0
20260507053115 6 185 0.0 1.6 0.00 0.00 0.00 83 1019.1
20260507052613 6 185 1.6 1.6 0.00 0.00 0.00 80 1019.0
20260507052109 6 184 0.0 1.6 0.00 0.00 0.00 82 1018.8
20260507051606 6 184 1.6 1.6 0.00 0.00 0.00 83 1018.9
20260507051103 7 184 0.0 0.0 0.00 0.00 0.00 92 1018.9
20260507050559 7 184 0.0 1.6 0.00 0.00 0.00 91 1019.1
20260507050056 7 185 1.6 1.6 0.00 0.00 0.00 88 1019.1
20260507045553 7 184 0.0 1.6 0.00 0.10 0.10 87 1019.3
20260507045050 6 184 0.0 0.0 0.00 0.10 0.10 87 1018.9
20260507044547 7 184 0.0 0.0 0.00 0.10 0.10 85 1018.9
20260507044044 7 184 0.0 1.6 0.00 0.10 0.10 83 1018.9
20260507043539 7 184 1.6 1.6 0.00 0.10 0.10 80 1019.0
20260507043037 8 184 1.6 1.6 0.00 0.10 0.10 76 1019.0
20260507042533 9 185 1.6 3.2 0.00 0.10 0.10 63 1019.2
20260507042028 9 145 1.6 1.6 0.00 0.10 0.10 62 1018.8
20260507041526 8 143 0.0 0.0 0.00 0.10 0.10 62 1018.9
20260507041022 8 144 0.0 0.0 0.00 0.10 0.10 62 1019.0
20260507040519 9 144 0.0 0.0 0.00 0.10 0.10 59 1018.9
20260507040014 9 143 1.6 1.6 0.00 0.10 0.10 59 1018.8
20260507035511 8 136 0.0 0.0 0.00 0.10 0.10 60 1018.8
20260507035008 8 133 0.0 0.0 0.00 0.10 0.10 62 1018.9
20260507034505 8 133 0.0 0.0 0.00 0.10 0.10 63 1018.8
20260507034003 8 131 0.0 0.0 0.00 0.10 0.10 65 1019.0
20260507033500 8 131 0.0 0.0 0.00 0.10 0.10 61 1019.3
20260507032957 9 131 0.0 0.0 0.00 0.10 0.10 61 1019.0
20260507032454 10 125 0.0 1.6 0.00 0.10 0.10 57 1019.0
20260507031950 9 107 1.6 1.6 0.00 0.10 0.10 60 1018.8
20260507031446 8 108 0.0 0.0 0.00 0.10 0.10 62 1019.1
20260507030943 8 108 0.0 0.0 0.00 0.10 0.10 64 1019.0
20260507030441 9 108 0.0 0.0 0.00 0.10 0.10 62 1019.0
20260507025938 10 108 0.0 0.0 0.00 0.10 0.10 57 1018.9
20260507025435 10 107 1.6 1.6 0.00 0.10 0.10 51 1018.9
20260507024933 10 107 0.0 1.6 0.00 0.10 0.10 52 1018.9
20260507024430 10 107 0.0 0.0 0.00 0.10 0.10 52 1018.9
20260507023925 11 107 0.0 0.0 0.00 0.10 0.10 50 1018.8
20260507023423 11 107 1.6 1.6 0.00 0.10 0.10 50 1018.7
20260507022920 11 108 1.6 1.6 0.00 0.10 0.10 50 1018.7
20260507022417 11 105 1.6 1.6 0.00 0.10 0.10 50 1018.9
20260507021912 11 108 1.6 4.8 0.00 0.10 0.10 49 1018.6
20260507021408 11 126 3.2 4.8 0.00 0.10 0.10 49 1018.4
20260507020907 11 89 3.2 4.8 0.00 0.10 0.10 50 1018.4
20260507020403 11 109 3.2 3.2 0.00 0.10 0.10 51 1018.3
20260507015900 11 88 3.2 4.8 0.00 0.10 0.10 53 1018.5
20260507015358 11 92 1.6 3.2 0.00 0.10 0.10 51 1018.4
20260507014855 11 78 3.2 3.2 0.00 0.10 0.10 51 1018.3
20260507014351 11 105 1.6 3.2 0.00 0.10 0.10 50 1018.2
20260507013847 11 87 3.2 4.8 0.00 0.10 0.10 50 1018.1
20260507013344 11 116 3.2 4.8 0.00 0.10 0.10 50 1018.4
20260507012842 11 86 3.2 3.2 0.00 0.10 0.10 52 1018.3
20260507012337 11 82 3.2 4.8 0.00 0.10 0.10 52 1018.2
20260507011834 11 58 1.6 4.8 0.00 0.10 0.10 51 1018.2
20260507011331 11 87 1.6 3.2 0.00 0.10 0.10 51 1018.2
20260507010826 11 78 0.0 3.2 0.00 0.10 0.10 52 1018.0
20260507010322 11 88 0.0 4.8 0.00 0.10 0.10 51 1018.0
20260507005819 12 78 1.6 4.8 0.00 0.10 0.10 51 1018.0
20260507005316 12 79 1.6 6.4 0.00 0.10 0.10 50 1017.9
20260507004812 12 55 3.2 6.4 0.00 0.10 0.10 49 1017.9
20260507004310 12 59 4.8 9.7 0.00 0.10 0.10 47 1017.7
20260507003806 13 51 1.6 4.8 0.00 0.10 0.10 47 1017.5
20260507003256 13 106 4.8 9.7 0.00 0.10 0.10 47 1017.5
20260507002752 13 39 4.8 4.8 0.00 0.10 0.10 47 1017.6
20260507002248 13 60 1.6 6.4 0.00 0.10 0.10 47 1017.4
20260507001745 13 67 1.6 11.3 0.00 0.10 0.10 47 1017.5
20260507001242 13 32 8.0 11.3 0.00 0.10 0.10 44 1017.5
20260507000739 13 46 1.6 11.3 0.00 0.10 0.10 45 1017.4
20260507000234 14 51 1.6 14.5 0.00 0.10 0.10 45 1017.3
20260506235731 14 83 1.6 3.2 0.00 0.10 0.10 46 1017.3
20260506235227 14 47 8.0 11.3 0.00 0.10 0.10 43 1017.3
20260506234724 14 46 4.8 6.4 0.00 0.10 0.10 44 1017.3
20260506234221 14 13 6.4 11.3 0.00 0.10 0.10 43 1017.3
20260506233719 14 79 4.8 9.7 0.00 0.10 0.10 43 1017.5
20260506233215 14 64 4.8 11.3 0.00 0.10 0.10 44 1017.4
20260506232711 14 9 6.4 12.9 0.00 0.10 0.10 45 1017.3
20260506232206 14 28 3.2 12.9 0.00 0.10 0.10 44 1017.2
20260506231704 15 354 6.4 9.7 0.00 0.10 0.10 43 1017.3
20260506231203 15 6 4.8 12.9 0.00 0.10 0.10 43 1017.3
20260506230659 15 348 8.0 11.3 0.00 0.10 0.10 42 1017.3
20260506230156 15 65 1.6 6.4 0.00 0.10 0.10 42 1017.3
20260506225652 15 6 6.4 12.9 0.00 0.10 0.10 41 1017.5
20260506225149 15 0 6.4 9.7 0.00 0.10 0.10 42 1017.3
20260506224645 15 24 12.9 14.5 0.00 0.10 0.10 41 1017.5
20260506224142 15 41 1.6 9.7 0.00 0.10 0.10 42 1017.3
20260506223639 15 83 8.0 12.9 0.00 0.10 0.10 42 1017.4
20260506223134 15 17 6.4 11.3 0.00 0.10 0.10 40 1017.3
20260506222632 15 58 6.4 20.9 0.00 0.10 0.10 40 1017.4
20260506222128 15 86 6.4 12.9 0.00 0.10 0.10 43 1017.2
20260506221626 15 46 4.8 9.7 0.00 0.10 0.10 42 1017.3
20260506221124 15 103 6.4 9.7 0.00 0.10 0.10 40 1017.2
20260506220620 15 84 8.0 17.7 0.00 0.10 0.10 41 1017.3
20260506220115 15 38 9.7 17.7 0.00 0.10 0.10 40 1017.3
20260506215612 15 17 11.3 14.5 0.00 0.10 0.10 40 1017.4
20260506215107 15 81 16.1 22.5 0.00 0.10 0.10 38 1017.4
20260506214605 15 358 17.7 22.5 0.00 0.10 0.10 39 1017.4
20260506214102 15 13 6.4 14.5 0.00 0.10 0.10 42 1017.3
20260506213600 15 18 11.3 14.5 0.00 0.10 0.10 41 1017.3
20260506213057 15 302 3.2 11.3 0.00 0.10 0.10 42 1017.0
20260506212554 15 40 12.9 14.5 0.00 0.10 0.10 43 1017.1
20260506212049 15 39 11.3 17.7 0.00 0.10 0.10 43 1017.3
20260506211545 15 53 11.3 22.5 0.00 0.10 0.10 43 1017.2
20260506211042 15 34 3.2 12.9 0.00 0.10 0.10 46 1017.2
20260506210538 15 351 11.3 17.7 0.00 0.10 0.10 43 1017.3
20260506210035 15 61 4.8 11.3 0.00 0.10 0.10 46 1017.4
20260506205532 15 43 4.8 14.5 0.00 0.10 0.10 47 1017.4
20260506205027 15 18 3.2 4.8 0.00 0.10 0.10 45 1017.4
20260506204526 15 126 9.7 16.1 0.00 0.10 0.10 45 1017.6
20260506204022 15 20 8.0 16.1 0.00 0.10 0.10 43 1017.5
20260506203521 15 89 3.2 12.9 0.00 0.10 0.10 46 1017.9
20260506203017 15 5 9.7 17.7 0.00 0.10 0.10 46 1017.5
20260506202514 15 12 12.9 16.1 0.00 0.10 0.10 46 1017.6
20260506202010 15 36 6.4 9.7 0.00 0.10 0.10 49 1018.0
20260506201508 15 23 8.0 9.7 0.00 0.10 0.10 48 1017.9